Location: Dilsberg
(49.3983°N, 8.8354°E)
Time: 06:05:26
(UTC+00:00)

Cosmos 2112 Rocket - Pass Details

Date: 19 May 2025
Orbit: 753 x 782 km, 74.0° (Epoch: 14 June)

Event Time Altitude Azimuth Distance (km) Brightness Sun altitude
Exits shadow 23:41:16 43° 172° (S) 1,069 4.3 -20.5°
Maximum altitude 23:42:51 65° 109° (ESE) 841 4.1 -20.4°
Drops below altitude 10° 23:48:02 10° 28° (NNE) 2,307 7.5 -20.4°
Sets 23:50:25 0° 26° (NNE) 3,233 8.5 -20.3°
